Location: Winthrop
(48.4780°N, 120.1850°W)
Time: 16:01:06
(UTC-07:00)

Vanguard 3 - Pass Details

Date: 06 February 2023
Orbit: 508 x 3249 km, 33.3° (Epoch: 22 March)

Event Time Altitude Azimuth Distance (km) Brightness Sun altitude
Rises 22:19:44 0° 265° (W) 5,079 11.6 -49.4°
Reaches altitude 10° 22:23:05 10° 255° (WSW) 4,441 11.1 -49.7°
Enters shadow 22:28:21 25° 233° (SW) 3,820 10.4 -50.3°
